Location: McCloud Nature Park
(39.8272°N, 86.6824°W)
Time: 18:59:35
(UTC-05:00)

Amateur Radio Satellites - All Passes

Search period start: 21 October 2014 18:29
Search period end: 22 October 2014 18:29
Location: McCloud Nature Park, 39.8272°N, 86.6824°W

Satellite Date Start Highest point End Downlink Frequencies (MHz)
Time Altitude Azimuth
Hamsat 21 Oct 18:30:02 18:33:48 31° 263° (W) 18:37:34 145.90 MHz
KITSAT 1 21 Oct 18:46:51 18:48:12 10° 15° (NNE) 18:49:33 435.175 FM
Saudisat 1A 21 Oct 18:49:45 18:52:18 15° 251° (WSW) 18:54:51 436.775 MHz
SO-67 21 Oct 19:03:45 19:07:10 80° 77° (ENE) 19:10:37 435.3500 MHz FM
ISS 21 Oct 19:29:32 19:32:20 24° 25° (NNE) 19:35:08 145.800 FM
STRAND 1 21 Oct 19:38:42 19:43:53 76° 103° (ESE) 19:49:01 ?
OPAL 21 Oct 19:40:47 19:43:27 15° 301° (WNW) 19:46:06 ?
HO-68 21 Oct 20:05:13 20:11:49 42° 65° (ENE) 20:18:27 435.675 MHz FM
Oscar 11 21 Oct 20:33:54 20:36:21 15° 65° (ENE) 20:38:47 145.825 FM, Beacon 2401.500 USB
KITSAT 1 21 Oct 20:40:00 20:46:54 30° 43° (NE) 20:53:45 435.175 FM
ISS 21 Oct 21:05:57 21:09:12 48° 222° (SW) 21:12:25 145.800 FM
ZACube-1 21 Oct 21:12:34 21:15:39 18° 66° (ENE) 21:18:43 437.345 MHz
STRAND 1 21 Oct 21:19:52 21:22:24 14° 300° (WNW) 21:24:56 ?
UKube-1 21 Oct 21:23:04 21:27:20 60° 74° (ENE) 21:31:38 145.840 MHz, 145.915 MHz
HO-68 21 Oct 21:53:02 21:59:31 37° 262° (W) 22:06:04 435.675 MHz FM
FUNcube-1 21 Oct 21:56:33 22:01:00 50° 73° (ENE) 22:05:25 145.950 - 145.970 MHz USB
SO-50 21 Oct 21:59:49 22:04:16 35° 50° (NE) 22:08:43 436.795 FM
Oscar 11 21 Oct 22:07:54 22:12:06 49° 260° (W) 22:16:19 145.825 FM, Beacon 2401.500 USB
RS-15 21 Oct 22:24:15 22:34:55 58° 113° (ESE) 22:45:28 29.354 - 29.394 USB, Beacon 29.352 USB
KITSAT 1 21 Oct 22:34:57 22:42:59 72° 244° (WSW) 22:50:59 435.175 FM
ZACube-1 21 Oct 22:47:17 22:51:42 45° 261° (W) 22:56:06 437.345 MHz
UKube-1 21 Oct 23:02:26 23:03:53 11° 269° (W) 23:05:21 145.840 MHz, 145.915 MHz
FUNcube-1 21 Oct 23:34:57 23:37:37 15° 268° (W) 23:40:17 145.950 - 145.970 MHz USB
SO-50 21 Oct 23:40:32 23:44:44 29° 247° (WSW) 23:48:56 436.795 FM
UOSAT-12 21 Oct 23:42:05 23:46:22 33° 50° (NE) 23:50:34 437.025 FM, 437.400 FM
MaSat-1 22 Oct 00:07:04 00:11:08 43° 111° (ESE) 00:14:53 437.345 MHz
KITSAT 1 22 Oct 00:34:18 00:36:56 12° 262° (W) 00:39:34 435.175 FM
RS-15 22 Oct 00:37:20 00:47:35 44° 316° (NW) 00:57:55 29.354 - 29.394 USB, Beacon 29.352 USB
Oscar 16 22 Oct 00:59:50 01:01:30 11° 89° (E) 01:03:10 437.025 USB, Beacon 2401.1428
UOSAT-12 22 Oct 01:22:22 01:26:25 29° 247° (WSW) 01:30:24 437.025 FM, 437.400 FM
MaSat-1 22 Oct 01:44:16 01:47:00 17° 304° (NW) 01:49:35 437.345 MHz
JAS-1B 22 Oct 01:47:15 01:53:16 35° 99° (E) 02:00:15 435.800 - 435.900 CW/SSB
Oscar 19 22 Oct 01:51:18 01:56:04 38° 98° (E) 02:00:48 437.125 CW, 437.150 USB
AO-27 22 Oct 02:01:39 02:05:24 20° 93° (E) 02:09:07 436.795 MHz FM
Oscar 16 22 Oct 02:36:16 02:41:25 77° 285° (WNW) 02:46:30 437.025 USB, Beacon 2401.1428
Uribyol 2 22 Oct 02:50:00 02:55:11 60° 101° (E) 03:00:17 436.500 FM
ITAMSAT 1 22 Oct 02:55:11 03:00:23 63° 102° (ESE) 03:05:32 435.822 SSB
Gurwin Techsat 1B 22 Oct 02:56:26 03:01:15 34° 97° (E) 03:06:01 435.225 FM
RS-15 22 Oct 02:56:44 03:03:59 19° 349° (NNW) 03:11:20 29.354 - 29.394 USB, Beacon 29.352 USB
AO-Echo 22 Oct 02:56:58 03:02:18 88° 104° (ESE) 03:07:38 ?
TMSAT-1 22 Oct 03:09:48 03:14:35 33° 97° (E) 03:19:20 436.925 FM
Oscar 19 22 Oct 03:31:05 03:35:11 25° 294° (WNW) 03:39:17 437.125 CW, 437.150 USB
AO-7 22 Oct 03:35:43 03:40:45 17° 91° (E) 03:45:46 29.400 - 29.500 MHz
JAS-1B 22 Oct 03:37:53 03:43:53 41° 291° (WNW) 03:50:53 435.800 - 435.900 CW/SSB
OPAL 22 Oct 03:38:23 03:41:10 15° 59° (ENE) 03:43:56 ?
AO-27 22 Oct 03:40:07 03:45:09 49° 289° (WNW) 03:50:09 436.795 MHz FM
Sapphire 22 Oct 04:12:41 04:17:49 46° 112° (ESE) 04:22:59 437.095 MHz 1200 baud AX-25 AFSK
Uribyol 2 22 Oct 04:30:49 04:34:08 17° 298° (WNW) 04:37:26 436.500 FM
PCSat 22 Oct 04:35:16 04:40:40 80° 117° (ESE) 04:46:07 145.825 MHz
ITAMSAT 1 22 Oct 04:36:07 04:39:19 17° 298° (WNW) 04:42:32 435.822 SSB
Gurwin Techsat 1B 22 Oct 04:36:32 04:41:05 30° 293° (WNW) 04:45:37 435.225 FM
AO-Echo 22 Oct 04:38:09 04:40:18 13° 300° (WNW) 04:42:27 ?
Uosat F 22 Oct 04:39:30 04:44:04 33° 97° (E) 04:48:36 435.120 FM
TMSAT-1 22 Oct 04:49:49 04:54:23 30° 293° (WNW) 04:58:56 436.925 FM
JAS-2 22 Oct 05:11:33 05:17:53 27° 92° (E) 05:24:13 435.800 - 435.900 CW/SSB, 435.910 FM
RS-15 22 Oct 05:13:30 05:22:01 24° 25° (NNE) 05:30:43 29.354 - 29.394 USB, Beacon 29.352 USB
OPAL 22 Oct 05:14:17 05:19:27 73° 255° (WSW) 05:24:35 ?
STRAND 1 22 Oct 05:18:24 05:20:31 13° 60° (ENE) 05:22:38 ?
AO-7 22 Oct 05:26:08 05:34:30 89° 108° (ESE) 05:42:51 29.400 - 29.500 MHz
Sapphire 22 Oct 05:56:56 06:01:26 26° 310° (NW) 06:05:59 437.095 MHz 1200 baud AX-25 AFSK
Hamsat 22 Oct 06:15:51 06:19:53 44° 99° (E) 06:23:54 145.90 MHz
Uosat F 22 Oct 06:18:28 06:22:42 28° 293° (WNW) 06:26:56 435.120 FM
PCSat 22 Oct 06:21:12 06:24:44 17° 316° (NW) 06:28:17 145.825 MHz
STRAND 1 22 Oct 06:53:51 06:58:58 83° 256° (WSW) 07:04:09 ?
JAS-2 22 Oct 06:55:38 07:03:14 65° 288° (WNW) 07:10:58 435.800 - 435.900 CW/SSB, 435.910 FM
Saudisat 1A 22 Oct 07:16:08 07:18:50 16° 110° (ESE) 07:21:33 436.775 MHz
AO-7 22 Oct 07:20:30 07:26:13 21° 308° (NW) 07:31:58 29.400 - 29.500 MHz
RS-15 22 Oct 07:25:54 07:37:02 67° 54° (NE) 07:48:36 29.354 - 29.394 USB, Beacon 29.352 USB
Hamsat 22 Oct 07:53:03 07:55:27 15° 294° (WNW) 07:57:52 145.90 MHz
SO-67 22 Oct 08:00:32 08:03:59 76° 283° (WNW) 08:07:25 435.3500 MHz FM
JAS-2 22 Oct 08:43:28 08:46:53 14° 306° (NW) 08:50:21 435.800 - 435.900 CW/SSB, 435.910 FM
Saudisat 1A 22 Oct 08:53:43 08:57:59 50° 306° (NW) 09:02:17 436.775 MHz
UKube-1 22 Oct 09:14:49 09:15:43 11° 90° (E) 09:16:36 145.840 MHz, 145.915 MHz
HO-68 22 Oct 09:20:44 09:27:36 46° 100° (E) 09:34:25 435.675 MHz FM
RS-15 22 Oct 09:39:02 09:48:42 35° 254° (WSW) 09:58:46 29.354 - 29.394 USB, Beacon 29.352 USB
PANSAT 22 Oct 09:41:01 09:43:03 14° 174° (S) 09:45:04 not established
MaSat-1 22 Oct 09:54:35 09:57:13 56° 63° (ENE) 09:59:37 437.345 MHz
Oscar 11 22 Oct 09:56:26 10:00:14 30° 96° (E) 10:04:01 145.825 FM, Beacon 2401.500 USB
ZACube-1 22 Oct 10:37:32 10:41:28 35° 97° (E) 10:45:19 437.345 MHz
UKube-1 22 Oct 10:47:58 10:52:19 65° 286° (WNW) 10:56:37 145.840 MHz, 145.915 MHz
HO-68 22 Oct 11:08:46 11:15:05 35° 297° (WNW) 11:21:23 435.675 MHz FM
KITSAT 1 22 Oct 11:10:27 11:15:21 18° 101° (E) 11:20:15 435.175 FM
PANSAT 22 Oct 11:20:29 11:22:30 14° 187° (S) 11:24:31 not established
FUNcube-1 22 Oct 11:22:47 11:27:03 68° 285° (WNW) 11:31:12 145.950 - 145.970 MHz USB
Oscar 11 22 Oct 11:32:53 11:36:15 23° 292° (WNW) 11:39:36 145.825 FM, Beacon 2401.500 USB
PCSat 22 Oct 11:44:32 11:44:41 10° 37° (NE) 11:44:50 145.825 MHz
ZACube-1 22 Oct 12:14:36 12:17:36 19° 294° (WNW) 12:20:34 437.345 MHz
Oscar 16 22 Oct 12:15:24 12:18:46 18° 63° (ENE) 12:22:07 437.025 USB, Beacon 2401.1428
SO-50 22 Oct 12:17:18 12:18:38 11° 107° (ESE) 12:20:00 436.795 FM
Uribyol 2 22 Oct 12:32:27 12:33:39 11° 58° (ENE) 12:34:52 436.500 FM
AO-Echo 22 Oct 12:34:10 12:36:04 12° 60° (ENE) 12:37:58 ?
JAS-1B 22 Oct 12:34:22 12:38:59 24° 64° (ENE) 12:43:24 435.800 - 435.900 CW/SSB
ITAMSAT 1 22 Oct 12:37:21 12:38:56 11° 59° (ENE) 12:40:31 435.822 SSB
Sapphire 22 Oct 13:01:24 13:06:19 33° 52° (NE) 13:11:11 437.095 MHz 1200 baud AX-25 AFSK
KITSAT 1 22 Oct 13:01:33 13:09:39 89° 299° (WNW) 13:17:47 435.175 FM
Oscar 19 22 Oct 13:07:21 13:12:20 52° 72° (ENE) 13:17:19 437.125 CW, 437.150 USB
AO-27 22 Oct 13:18:56 13:23:20 29° 67° (ENE) 13:27:45 436.795 MHz FM
PCSat 22 Oct 13:24:03 13:29:22 53° 57° (ENE) 13:34:39 145.825 MHz
ISS 22 Oct 13:47:12 13:50:32 82° 141° (SE) 13:53:53 145.800 FM
Oscar 16 22 Oct 13:52:33 13:57:38 57° 259° (W) 14:02:44 437.025 USB, Beacon 2401.1428
Oscar 10/S400 22 Oct 13:53:20 14:11:22 41° 154° (SSE) 14:34:38 145.825 - 145.975 CW/USB, Beacon 145.810 USB
SO-50 22 Oct 13:54:02 13:58:30 73° 303° (WNW) 14:03:08 436.795 FM
UOSAT-12 22 Oct 13:56:19 13:57:05 10° 106° (ESE) 13:57:52 437.025 FM, 437.400 FM
Uribyol 2 22 Oct 14:07:03 14:12:16 84° 75° (ENE) 14:17:32 436.500 FM
AO-Echo 22 Oct 14:09:15 14:14:04 80° 257° (WSW) 14:19:06 ?
ITAMSAT 1 22 Oct 14:12:24 14:17:36 88° 76° (ENE) 14:22:52 435.822 SSB
Gurwin Techsat 1B 22 Oct 14:16:42 14:21:48 50° 71° (ENE) 14:26:55 435.225 FM
JAS-1B 22 Oct 14:23:36 14:29:27 44° 260° (W) 14:34:54 435.800 - 435.900 CW/SSB
TMSAT-1 22 Oct 14:29:43 14:34:47 48° 71° (ENE) 14:39:53 436.925 FM
AO-7 22 Oct 14:33:59 14:40:20 26° 55° (NE) 14:46:41 29.400 - 29.500 MHz
Sapphire 22 Oct 14:44:49 14:49:42 35° 250° (WSW) 14:54:34 437.095 MHz 1200 baud AX-25 AFSK
Oscar 19 22 Oct 14:48:30 14:51:57 18° 268° (W) 14:55:25 437.125 CW, 437.150 USB
AO-27 22 Oct 14:58:00 15:02:42 34° 263° (W) 15:07:27 436.795 MHz FM
KITSAT 1 22 Oct 14:59:52 15:06:09 24° 321° (NW) 15:12:28 435.175 FM
PCSat 22 Oct 15:08:27 15:12:21 20° 254° (WSW) 15:16:13 145.825 MHz
ISS 22 Oct 15:25:07 15:27:35 19° 339° (NNW) 15:30:03 145.800 FM
UOSAT-12 22 Oct 15:31:52 15:36:30 82° 302° (WNW) 15:41:14 437.025 FM, 437.400 FM
SO-50 22 Oct 15:38:17 15:39:55 12° 323° (NW) 15:41:35 436.795 FM
Saudisat 1A 22 Oct 15:42:48 15:45:12 14° 41° (NE) 15:47:36 436.775 MHz
Uribyol 2 22 Oct 15:51:07 15:52:21 11° 271° (W) 15:53:35 436.500 FM
Uosat F 22 Oct 15:51:58 15:56:41 43° 70° (ENE) 16:01:26 435.120 FM
ITAMSAT 1 22 Oct 15:57:36 15:57:45 10° 271° (W) 15:57:54 435.822 SSB
Gurwin Techsat 1B 22 Oct 15:58:14 16:02:01 20° 267° (W) 16:05:50 435.225 FM
TMSAT-1 22 Oct 16:11:06 16:14:57 20° 267° (W) 16:18:49 436.925 FM
AO-7 22 Oct 16:24:04 16:32:19 75° 254° (WSW) 16:40:38 29.400 - 29.500 MHz
ISS 22 Oct 17:04:20 17:05:20 11° 360° (N) 17:06:19 145.800 FM
JAS-2 22 Oct 17:07:04 17:12:40 54° 70° (ENE) 17:19:03 435.800 - 435.900 CW/SSB, 435.910 FM
Hamsat 22 Oct 17:08:38 17:12:17 29° 70° (ENE) 17:15:56 145.90 MHz
UOSAT-12 22 Oct 17:15:09 17:17:24 13° 322° (NW) 17:19:41 437.025 FM, 437.400 FM
Saudisat 1A 22 Oct 17:20:54 17:25:20 80° 239° (WSW) 17:29:44 436.775 MHz
OPAL 22 Oct 17:25:26 17:29:47 30° 99° (E) 17:34:05 ?
Uosat F 22 Oct 17:31:55 17:35:38 21° 266° (W) 17:39:23 435.120 FM
